�������l�o���
Date,Time,MP-1(��Sv/h),MP-2(��Sv/h),MP-3(��Sv/h),MP-4(��Sv/h),MP-5(��Sv/h),MP-6(��Sv/h),MP-7(��Sv/h),����,����(m/s),���J
2022/04/10,00:00,0.158,0.143,0.227,0.220,0.222,0.124,0.079,�쐼,1.9,��
2022/04/10,00:10,0.158,0.143,0.226,0.219,0.224,0.124,0.079,��쐼,2.4,��
2022/04/10,00:20,0.156,0.143,0.227,0.220,0.221,0.124,0.080,�쐼,3.0,��
2022/04/10,00:30,0.157,0.143,0.227,0.219,0.223,0.124,0.079,�쐼,3.5,��
2022/04/10,00:40,0.157,0.143,0.227,0.220,0.223,0.125,0.079,���쐼,3.5,��
2022/04/10,00:50,0.157,0.143,0.227,0.220,0.223,0.123,0.078,���쐼,3.3,��
2022/04/10,01:00,0.157,0.143,0.228,0.219,0.222,0.124,0.079,�쐼,2.4,��
2022/04/10,01:10,0.157,0.142,0.227,0.219,0.223,0.125,0.079,��쐼,2.4,��
2022/04/10,01:20,0.158,0.143,0.227,0.219,0.224,0.125,0.079,��쐼,1.9,��
2022/04/10,01:30,0.157,0.143,0.227,0.219,0.221,0.125,0.078,��쐼,2.4,��
2022/04/10,01:40,0.158,0.142,0.226,0.221,0.223,0.125,0.080,��쐼,2.2,��
2022/04/10,01:50,0.157,0.144,0.227,0.220,0.221,0.124,0.079,��쐼,2.9,��
2022/04/10,02:00,0.157,0.143,0.227,0.219,0.222,0.125,0.079,��쐼,2.7,��
2022/04/10,02:10,0.158,0.143,0.227,0.220,0.223,0.124,0.079,��쐼,1.9,��
2022/04/10,02:20,0.156,0.142,0.227,0.219,0.223,0.125,0.079,�쐼,1.9,��
2022/04/10,02:30,0.158,0.144,0.228,0.221,0.224,0.124,0.080,�쐼,2.5,��
2022/04/10,02:40,0.157,0.143,0.226,0.219,0.223,0.124,0.079,�쐼,2.1,��
2022/04/10,02:50,0.156,0.144,0.227,0.219,0.224,0.124,0.079,�쐼,3.0,��
2022/04/10,03:00,0.156,0.143,0.228,0.220,0.221,0.124,0.080,��쐼,2.9,��
2022/04/10,03:10,0.157,0.143,0.227,0.220,0.222,0.124,0.079,��쐼,3.2,��
2022/04/10,03:20,0.156,0.143,0.226,0.220,0.223,0.124,0.079,��쐼,3.0,��
2022/04/10,03:30,0.157,0.143,0.228,0.221,0.222,0.124,0.079,��쐼,3.0,��
2022/04/10,03:40,0.157,0.143,0.228,0.219,0.223,0.125,0.080,�쐼,3.5,��
2022/04/10,03:50,0.157,0.143,0.227,0.219,0.222,0.125,0.079,�쐼,3.3,��
2022/04/10,04:00,0.158,0.143,0.227,0.220,0.222,0.124,0.078,�쐼,2.1,��
2022/04/10,04:10,0.157,0.143,0.228,0.220,0.221,0.124,0.079,�쐼,1.3,��
2022/04/10,04:20,0.157,0.143,0.226,0.219,0.222,0.125,0.079,���쐼,1.0,��
2022/04/10,04:30,0.157,0.143,0.226,0.220,0.223,0.124,0.079,���쐼,0.7,��
2022/04/10,04:40,0.157,0.142,0.229,0.220,0.222,0.124,0.079,��,1.4,��
2022/04/10,04:50,0.158,0.143,0.227,0.219,0.222,0.124,0.079,���쐼,2.2,��
2022/04/10,05:00,0.158,0.144,0.226,0.220,0.223,0.124,0.079,���쐼,2.5,��
2022/04/10,05:10,0.157,0.141,0.227,0.219,0.222,0.125,0.079,���쐼,1.8,��
2022/04/10,05:20,0.158,0.143,0.227,0.219,0.223,0.124,0.079,�쐼,1.9,��
2022/04/10,05:30,0.158,0.143,0.226,0.219,0.222,0.124,0.079,��쐼,1.3,��
2022/04/10,05:40,0.157,0.142,0.228,0.219,0.222,0.125,0.080,��,2.2,��
2022/04/10,05:50,0.158,0.143,0.227,0.220,0.222,0.125,0.080,��,2.5,��
2022/04/10,06:00,0.157,0.142,0.227,0.219,0.221,0.124,0.079,��,2.4,��
2022/04/10,06:10,0.157,0.143,0.227,0.219,0.223,0.125,0.079,��,3.0,��
2022/04/10,06:20,0.158,0.144,0.227,0.220,0.221,0.124,0.079,��,1.9,��
2022/04/10,06:30,0.157,0.142,0.228,0.220,0.223,0.124,0.079,��,1.4,��
2022/04/10,06:40,0.158,0.142,0.227,0.219,0.221,0.125,0.079,��,1.4,��
2022/04/10,06:50,0.157,0.143,0.227,0.219,0.223,0.124,0.079,���k��,0.8,��
2022/04/10,07:00,0.156,0.144,0.227,0.218,0.221,0.124,0.080,-,CALM,��
2022/04/10,07:10,0.157,0.142,0.226,0.219,0.222,0.124,0.079,���쐼,0.5,��
2022/04/10,07:20,0.157,0.143,0.228,0.218,0.222,0.123,0.078,��,1.3,��
2022/04/10,07:30,0.157,0.142,0.225,0.219,0.223,0.123,0.079,���쐼,1.6,��
2022/04/10,07:40,0.158,0.142,0.226,0.218,0.221,0.124,0.079,���쐼,1.3,��
2022/04/10,07:50,0.157,0.142,0.227,0.219,0.223,0.123,0.079,���쐼,1.0,��
2022/04/10,08:00,0.157,0.143,0.225,0.217,0.221,0.124,0.079,��쐼,0.8,��
2022/04/10,08:10,0.156,0.142,0.224,0.216,0.224,0.125,0.079,��,1.0,��
2022/04/10,08:20,0.157,0.141,0.227,0.218,0.222,0.124,0.079,��,0.5,��
2022/04/10,08:30,0.157,0.144,0.226,0.220,0.220,0.125,0.080,��쐼,0.5,��
2022/04/10,08:40,0.154,0.143,0.225,0.218,0.222,0.124,0.079,-,CALM,��
2022/04/10,08:50,0.156,0.141,0.224,0.217,0.222,0.124,0.079,���쓌,0.8,��
2022/04/10,09:00,0.157,0.142,0.224,0.217,0.220,0.124,0.080,�쓌,1.6,��
2022/04/10,09:10,0.156,0.143,0.225,0.216,0.221,0.123,0.079,��쓌,1.6,��
2022/04/10,09:20,0.156,0.142,0.224,0.218,0.224,0.124,0.079,�쓌,1.6,��
2022/04/10,09:30,0.158,0.141,0.224,0.220,0.222,0.124,0.079,�쓌,1.8,��
2022/04/10,09:40,0.156,0.142,0.224,0.220,0.221,0.124,0.078,���쓌,1.6,��
2022/04/10,09:50,0.157,0.143,0.225,0.219,0.220,0.124,0.079,��,1.1,��
2022/04/10,10:00,0.158,0.142,0.227,0.218,0.219,0.123,0.079,��,1.9,��
2022/04/10,10:10,0.156,0.143,0.229,0.217,0.223,0.125,0.079,���쓌,4.4,��
2022/04/10,10:20,0.157,0.143,0.227,0.217,0.223,0.124,0.079,�쓌,5.0,��
2022/04/10,10:30,0.159,0.142,0.226,0.217,0.221,0.124,0.079,�쓌,5.9,��
2022/04/10,10:40,0.156,0.143,0.225,0.217,0.220,0.124,0.079,��쓌,6.4,��
2022/04/10,10:50,0.155,0.142,0.226,0.220,0.219,0.123,0.079,��쓌,7.2,��
2022/04/10,11:00,0.158,0.142,0.224,0.221,0.219,0.124,0.079,��쓌,7.0,��
2022/04/10,11:10,0.158,0.140,0.225,0.220,0.220,0.124,0.079,��쓌,7.2,��
2022/04/10,11:20,0.156,0.141,0.225,0.218,0.224,0.124,0.078,��쓌,7.3,��
2022/04/10,11:30,0.155,0.142,0.225,0.219,0.223,0.123,0.078,��쓌,7.9,��
2022/04/10,11:40,0.155,0.144,0.227,0.218,0.221,0.124,0.079,��쓌,8.5,��
2022/04/10,11:50,0.155,0.143,0.226,0.217,0.220,0.124,0.079,��쓌,6.8,��
2022/04/10,12:00,0.156,0.141,0.225,0.218,0.221,0.124,0.079,��쓌,8.0,��
2022/04/10,12:10,0.154,0.142,0.225,0.221,0.220,0.124,0.078,��쓌,7.7,��
2022/04/10,12:20,0.156,0.141,0.226,0.221,0.219,0.124,0.079,��,8.7,��
2022/04/10,12:30,0.155,0.142,0.226,0.220,0.221,0.124,0.079,��쓌,8.2,��
2022/04/10,12:40,0.154,0.143,0.226,0.219,0.219,0.124,0.079,��쓌,7.8,��
2022/04/10,12:50,0.155,0.143,0.227,0.218,0.220,0.124,0.078,��쓌,10.2,��
2022/04/10,13:00,0.159,0.142,0.227,0.218,0.219,0.125,0.079,��쓌,11.5,��
2022/04/10,13:10,0.157,0.141,0.226,0.221,0.224,0.124,0.078,��쓌,10.5,��
2022/04/10,13:20,0.158,0.142,0.230,0.221,0.224,0.124,0.079,��쓌,11.3,��
2022/04/10,13:30,0.155,0.144,0.229,0.218,0.223,0.124,0.079,��쓌,11.5,��
2022/04/10,13:40,0.156,0.144,0.227,0.218,0.222,0.124,0.078,��쓌,12.0,��
2022/04/10,13:50,0.155,0.141,0.227,0.220,0.220,0.124,0.079,��쓌,11.6,��
2022/04/10,14:00,0.157,0.141,0.226,0.221,0.220,0.124,0.079,��쓌,11.2,��
2022/04/10,14:10,0.159,0.143,0.225,0.220,0.224,0.124,0.078,��쓌,10.7,��
2022/04/10,14:20,0.155,0.144,0.230,0.219,0.223,0.123,0.079,��쓌,11.3,��
2022/04/10,14:30,0.157,0.143,0.230,0.220,0.221,0.124,0.079,��쓌,11.1,��
2022/04/10,14:40,0.155,0.142,0.228,0.222,0.220,0.124,0.078,��,10.9,��
2022/04/10,14:50,0.157,0.143,0.227,0.220,0.219,0.124,0.079,��,9.5,��
2022/04/10,15:00,0.160,0.143,0.227,0.219,0.221,0.124,0.079,��쓌,9.6,��
2022/04/10,15:10,0.157,0.142,0.228,0.221,0.223,0.125,0.079,��쓌,9.8,��
2022/04/10,15:20,0.156,0.144,0.228,0.221,0.223,0.124,0.079,��쓌,10.0,��
2022/04/10,15:30,0.156,0.143,0.227,0.219,0.221,0.123,0.079,��쓌,9.7,��
2022/04/10,15:40,0.158,0.142,0.230,0.222,0.220,0.124,0.079,��쓌,9.4,��
2022/04/10,15:50,0.157,0.144,0.229,0.221,0.224,0.124,0.079,��쓌,8.7,��
2022/04/10,16:00,0.156,0.142,0.228,0.219,0.222,0.124,0.079,��쓌,8.7,��
2022/04/10,16:10,0.156,0.143,0.229,0.222,0.221,0.123,0.078,��쓌,9.7,��
2022/04/10,16:20,0.157,0.143,0.228,0.221,0.220,0.124,0.079,��쓌,9.5,��
2022/04/10,16:30,0.157,0.142,0.229,0.222,0.223,0.124,0.078,��쓌,9.9,��
2022/04/10,16:40,0.157,0.143,0.228,0.221,0.223,0.125,0.079,��쓌,10.0,��
2022/04/10,16:50,0.159,0.143,0.228,0.221,0.221,0.125,0.079,��쓌,9.9,��
2022/04/10,17:00,0.156,0.144,0.228,0.222,0.224,0.124,0.079,��쓌,9.2,��
2022/04/10,17:10,0.160,0.143,0.228,0.219,0.223,0.125,0.079,��쓌,9.4,��
2022/04/10,17:20,0.157,0.143,0.229,0.222,0.222,0.124,0.079,��,8.7,��
2022/04/10,17:30,0.158,0.142,0.227,0.218,0.224,0.124,0.079,��,10.0,��
2022/04/10,17:40,0.157,0.143,0.229,0.222,0.221,0.124,0.079,��,9.3,��
2022/04/10,17:50,0.157,0.142,0.228,0.220,0.224,0.124,0.079,��,8.3,��
2022/04/10,18:00,0.158,0.144,0.229,0.221,0.223,0.125,0.078,��,9.7,��
2022/04/10,18:10,0.158,0.143,0.228,0.221,0.223,0.124,0.079,��,8.6,��
2022/04/10,18:20,0.158,0.144,0.229,0.222,0.223,0.124,0.079,��,9.2,��
2022/04/10,18:30,0.158,0.144,0.230,0.221,0.222,0.124,0.080,��,9.0,��
2022/04/10,18:40,0.156,0.145,0.228,0.221,0.223,0.124,0.079,��,9.4,��
2022/04/10,18:50,0.158,0.143,0.229,0.223,0.223,0.124,0.079,��,8.4,��
2022/04/10,19:00,0.157,0.143,0.229,0.220,0.224,0.125,0.079,��,8.1,��
2022/04/10,19:10,0.159,0.144,0.229,0.221,0.221,0.124,0.079,��,7.5,��
2022/04/10,19:20,0.158,0.144,0.228,0.220,0.224,0.125,0.079,��,6.2,��
2022/04/10,19:30,0.157,0.143,0.228,0.222,0.221,0.124,0.079,��,6.0,��
2022/04/10,19:40,0.158,0.143,0.227,0.221,0.223,0.124,0.079,��,5.5,��
2022/04/10,19:50,0.158,0.143,0.229,0.222,0.222,0.124,0.079,��,5.7,��
2022/04/10,20:00,0.157,0.143,0.229,0.222,0.223,0.124,0.079,��,5.4,��
2022/04/10,20:10,0.157,0.143,0.228,0.222,0.222,0.125,0.079,��,5.7,��
2022/04/10,20:20,0.157,0.144,0.228,0.222,0.224,0.125,0.080,��쐼,5.9,��
2022/04/10,20:30,0.158,0.144,0.228,0.221,0.223,0.124,0.079,��쐼,5.9,��
2022/04/10,20:40,0.157,0.144,0.229,0.221,0.224,0.124,0.079,��쐼,6.2,��
2022/04/10,20:50,0.158,0.143,0.229,0.220,0.222,0.124,0.080,��쐼,6.0,��
2022/04/10,21:00,0.157,0.143,0.229,0.222,0.224,0.125,0.079,��쐼,6.4,��
2022/04/10,21:10,0.158,0.144,0.228,0.221,0.221,0.124,0.080,��쐼,5.9,��
2022/04/10,21:20,0.158,0.144,0.228,0.222,0.224,0.124,0.079,��쐼,6.0,��
2022/04/10,21:30,0.159,0.143,0.229,0.221,0.220,0.125,0.079,��쐼,6.3,��
2022/04/10,21:40,0.157,0.143,0.228,0.221,0.223,0.124,0.079,��쐼,6.1,��
2022/04/10,21:50,0.157,0.143,0.228,0.220,0.222,0.124,0.079,��쐼,5.9,��
2022/04/10,22:00,0.158,0.143,0.227,0.222,0.225,0.124,0.079,��쐼,5.9,��
2022/04/10,22:10,0.158,0.143,0.229,0.222,0.221,0.125,0.079,��쐼,5.5,��
2022/04/10,22:20,0.158,0.142,0.228,0.221,0.224,0.124,0.079,��쐼,5.2,��
2022/04/10,22:30,0.158,0.144,0.229,0.221,0.222,0.124,0.079,��쐼,5.1,��
2022/04/10,22:40,0.158,0.143,0.227,0.222,0.224,0.124,0.079,��쐼,4.9,��
2022/04/10,22:50,0.157,0.144,0.229,0.221,0.222,0.125,0.079,��쐼,3.8,��
2022/04/10,23:00,0.158,0.143,0.227,0.221,0.225,0.125,0.080,��쐼,3.8,��
2022/04/10,23:10,0.159,0.143,0.229,0.221,0.221,0.124,0.079,��쐼,3.5,��
2022/04/10,23:20,0.158,0.143,0.229,0.222,0.225,0.125,0.080,�쐼,3.5,��
2022/04/10,23:30,0.157,0.145,0.228,0.220,0.221,0.125,0.079,��쐼,3.7,��
2022/04/10,23:40,0.158,0.143,0.229,0.221,0.224,0.124,0.079,�쐼,4.4,��
2022/04/10,23:50,0.159,0.145,0.229,0.221,0.221,0.125,0.079,�쐼,4.1,��
